Regional Weather Roundup
Issued by NWS

Home | Current Version | Previous Version | Graphics & Text | Print | Product List | Glossary On
Versions: 1 2 3 4 5 6 7 8 9 10 11 12 13 14 15 16 17 18 19 20 21 22 23 24 25 26 27 28 29 30 31 32 33 34 35 36 37 38 39 40 41 42 43 44 45 46 47 48 49 50
454
ASUS43 KDMX 272206
RWRIA

WEATHER ROUNDUP FOR IOWA
NATIONAL WEATHER SERVICE DES MOINES IA
500 PM CDT SAT MAY 27 2017

NOTE: "FAIR" INDICATES FEW OR NO CLOUDS BELOW 12,000 FEET WITH NO
SIGNIFICANT WEATHER AND/OR OBSTRUCTIONS TO VISIBILITY.

* - THESE STATIONS ARE NOT NWS STATIONS...THUS NOT UNDER NWS
QUALITY CONTROL.  THEY ALSO DO NOT REPORT WEATHER SUCH
AS PRECIPITATION OR FOG.

IAZ001>003-012>014-020>022-031>034-043>046-272300-
   NORTHWEST IOWA

CITY           SKY/WX    TMP DP  RH WIND       PRES   REMARKS
CARROLL *      SUNNY     70  55  60 E12       29.88S
CHEROKEE *     SUNNY     70  52  53 N8        29.89R
DENISON *      SUNNY     72  50  46 E12G18    29.90R
LE MARS *      MOSUNNY   70  52  52 NW8G18    29.92R
ORANGE CITY *  PTSUNNY   66  54  63 NW8       29.92R
SHELDON *      MOSUNNY   68  50  52 NW7       29.89S
SIOUX CITY     MOSUNNY   74  52  46 N10       29.90R
SPENCER        SUNNY     71  50  47 N9        29.89F
STORM LAKE *   SUNNY     73  43  33 N13       29.89R
$$

IAZ055>058-069>071-079>083-090>094-272300-
   SOUTHWEST IOWA

CITY           SKY/WX    TMP DP  RH WIND       PRES   REMARKS
ATLANTIC *     SUNNY     66  55  68 E9G16     29.87F
AUDUBON *      SUNNY     68  57  68 E8        29.89S
CLARINDA *     MOSUNNY   72  61  68 NE12      29.88R
COUNCIL BLFS *   N/A     68  57  68 E9        29.89S
CRESTON *      MOSUNNY   68  61  77 NE10      29.87S
HARLAN  *      MOSUNNY   68  57  68 NE9G16    29.92S
LAMONI         CLOUDY    72  61  68 N6        29.84R
RED OAK *      MOSUNNY   72  59  64 NE9       29.87S
SHENANDOAH *   MOSUNNY   72  61  68 NE13      29.86F
$$

IAZ047>049-059>061-072>074-084-272300-
   CENTRAL IOWA

CITY           SKY/WX    TMP DP  RH WIND       PRES   REMARKS
AMES           LGT RAIN  64  57  78 NE12      29.86S
ANKENY *       CLOUDY    64  59  82 NE10G17   29.87S
BOONE *        CLOUDY    66  59  77 NE15G22   29.85F
CHARITON *     CLOUDY    68  63  83 N13       29.84R
DES MOINES     PTSUNNY   68  58  70 N13       29.85S
GRINNELL*      LGT RAIN  60  58  92 N13G18    29.87R
KNOXVILLE *    CLOUDY    66  61  82 N13       29.84R
MARSHALLTOWN   LGT RAIN  60  56  86 NW9G20    29.88R
NEWTON *       CLOUDY    61  57  88 NE16      29.85S
PELLA *        CLOUDY    65  60  83 NE12G17   29.86R
PERRY *          N/A     67  57  72 NE10G17   29.87S
$$

IAZ004>006-015-016-023>025-035-036-272300-
   NORTH CENTRAL IOWA

CITY           SKY/WX    TMP DP  RH WIND       PRES   REMARKS
ALGONA *       MOSUNNY   72  46  40 VRB7G15   29.88S
CLARION *      CLOUDY    64  50  59 NE9       29.87S
ESTHERVILLE    MOSUNNY   68  50  52 N9        29.89F
FORT DODGE *   CLOUDY    68  52  56 E12       29.89R
MASON CITY     LGT RAIN  64  49  57 N6        29.90R
FOREST CITY *    N/A     70  41  35 E5        29.88S
WEBSTER CITY * PTSUNNY   64  54  68 E13       29.85F
IOWA FALLS *   RAIN      64  54  69 N7        29.89S
$$

IAZ007>011-017>019-026>030-037>042-050>054-066-272300-
   NORTHEAST IOWA

CITY           SKY/WX    TMP DP  RH WIND       PRES   REMARKS
CEDAR RAPIDS   LGT RAIN  69  66  90 SE3       29.84R
CHARLES CITY * LGT RAIN  64  52  63 NW5       29.90R
CLINTON *      CLOUDY    74  62  66 SE6       29.85F
DECORAH *      CLOUDY    70  50  49 N8        29.87R
DUBUQUE        CLOUDY    72  60  66 E3        29.86R
MONTICELLO *   CLOUDY    72  63  73 E5        29.85S
OELWEIN *      LGT RAIN  68  55  64 NW10      29.88R
WATERLOO       LGT RAIN  62  58  86 CALM      29.88R FOG
$$

IAZ064-065-067-068-078-272300-
   EAST CENTRAL IOWA

CITY           SKY/WX    TMP DP  RH WIND       PRES   REMARKS
DAVENPORT      CLOUDY    72  60  66 SE7       29.84F
IOWA CITY      CLOUDY    72  62  71 SE5       29.85S
MT. PLEASANT * CLOUDY    73  62  67 SE10      29.81F
MUSCATINE *    CLOUDY    73  63  68 CALM      29.83S
QUAD CITIES    CLOUDY    74  62  66 E9        29.83F
$$

IAZ062-063-075>077-085>089-095>099-272300-
   SOUTHEAST IOWA

CITY           SKY/WX    TMP DP  RH WIND       PRES   REMARKS
BURLINGTON     CLOUDY    75  64  68 SE10      29.80F
FAIRFIELD *    CLOUDY    73  61  64 SE8       29.81R
FORT MADISON * CLOUDY    73  64  73 SE9       29.81F
KEOKUK *       CLOUDY    73  64  73 SE9       29.79F
OSKALOOSA *    PTSUNNY   71  62  72 N13       29.84R
CENTERVILLE *    N/A     75  63  64 CALM      29.84R
OTTUMWA        CLOUDY    74  65  73 SE6       29.82R
WASHINGTON *   CLOUDY    73  63  68 SE8       29.84R
$$

ABBREVIATIONS USED IN REMARKS
   TC - TEMPERATURES IN CELSIUS
  WCI - WIND CHILL INDEX
   HX - HEAT INDEX
  VSB - VISIBILITY
$$





USA.gov is the U.S. government's official web portal to all federal, state and local government web resources and services.